Stations météo

réclame
Mon MeteoGroup
St.Peter-Ording, Allemagne (10028): Température de l'air & dewpoint: 11.12.2017 08:00:00 - 17.12.2017 08:00:00 (CET)St.Peter-Ording, Allemagne (10028): Température de l'air 5cm & Température de l'air -5cm: 11.12.2017 08:00:00 - 17.12.2017 08:00:00 (CET)St.Peter-Ording, Allemagne (10028): Température de l'air -20cm & Température de l'air -100cm: 11.12.2017 08:00:00 - 17.12.2017 08:00:00 (CET)St.Peter-Ording, Allemagne (10028): Vitesse du vent & gusts: 11.12.2017 08:00:00 - 17.12.2017 08:00:00 (CET)St.Peter-Ording, Allemagne (10028): Direction du vent: 11.12.2017 08:00:00 - 17.12.2017 08:00:00 (CET)St.Peter-Ording, Allemagne (10028): reduced air pressure: 11.12.2017 08:00:00 - 17.12.2017 08:00:00 (CET)St.Peter-Ording, Allemagne (10028): visibility: 11.12.2017 08:00:00 - 17.12.2017 08:00:00 (CET)St.Peter-Ording, Allemagne (10028): Ensoleillement: 11.12.2017 08:00:00 - 17.12.2017 08:00:00 (CET)St.Peter-Ording, Allemagne (10028): Quantités de précipitations: 11.12.2017 08:00:00 - 17.12.2017 08:00:00 (CET)
Date & Time tt [°C] td [°C] tt 5cm [°C] tt -5cm [°C] tt -20cm [°C] tt -100cm [°C] ff [km/h] ff [knt] fx [km/h] fx [knt] dd ppp [hPa] vv [km] sd [min] rr [mm]
17.12.2017 08:00:00 0,9 -0,3 -1,4 0,2 2,2 6,7 13 7 21 11 N 1017,9 55 0 0,0
17.12.2017 07:00:00 1,4 -0,3 -0,5 0,3 2,2 6,7 16 9 23 13 N 1017,3 59 0 0,0
17.12.2017 06:00:00 1,5 -0,1 -0,5 0,3 2,3 6,7 18 10 26 14 N 1016,6 59 0 0,0
17.12.2017 05:00:00 1,5 -0,5 -0,5 0,3 2,4 6,7 17 9 31 17 N 1015,6 70 0 0,0
17.12.2017 04:00:00 1,8 -1,2 0,0 0,4 2,4 6,7 21 12 29 16 N 1015,0 70 0 0,0
17.12.2017 03:00:00 1,6 -1,5 -0,7 0,4 2,5 6,7 16 9 28 15 N 1014,3 70 0 0,0
17.12.2017 02:00:00 1,9 -0,8 -0,8 0,5 2,6 6,7 13 7 18 10 N 1013,4 65 0 0,0
17.12.2017 01:00:00 1,7 0,8 -1,8 0,4 2,7 6,7 9 5 14 8 NNW 1012,7 19 0 0,0
17.12.2017 00:00:00 2,7 1,2 0,8 0,8 2,8 6,7 13 7 22 12 NNW 1011,8 21 0 0,0
16.12.2017 23:00:00 3,4 1,4 2,0 1,4 2,9 6,7 25 14 37 20 NW 1011,1 37 0 0,0
16.12.2017 22:00:00 3,1 1,2 1,6 1,2 3,0 6,7 24 13 42 23 WNW 1010,4 34 0 0,0
16.12.2017 21:00:00 3,1 1,4 1,5 1,2 3,0 6,7 18 10 26 14 WNW 1009,8 33 0 0,0
16.12.2017 20:00:00 2,8 0,8 2,0 1,8 3,1 6,7 24 13 45 24 NNW 1009,7 55 0 0,1
16.12.2017 19:00:00 3,2 1,0 1,8 1,8 3,2 6,7 23 12 40 22 WNW 1008,6 57 0 0,0
16.12.2017 18:00:00 3,2 1,0 1,7 1,7 3,2 6,7 25 13 33 18 NW 1008,0 61 0 0,0
16.12.2017 17:00:00 3,2 1,5 2,4 2,3 3,3 6,7 13 7 46 25 NW 1007,6 51 0 0,3
16.12.2017 16:00:00 3,9 1,8 2,9 2,4 3,3 6,7 23 13 30 16 W 1006,7 64 0 0,0
16.12.2017 15:00:00 4,1 1,6 3,0 3,0 3,2 6,7 20 11 33 18 WNW 1006,0 46 59 0,0
16.12.2017 14:00:00 4,3 1,6 4,5 3,2 3,0 6,7 22 12 36 19 W 1005,6 39 24 0,0
16.12.2017 13:00:00 3,6 1,4 2,9 3,0 2,9 6,7 18 10 36 20 W 1005,3 44 6 0,0
16.12.2017 12:00:00 4,6 2,2 4,5 3,6 2,7 6,7 23 13 39 21 W 1004,9 15 54 0,0
16.12.2017 11:00:00 3,7 2,1 2,6 1,4 2,7 6,7 21 11 29 16 W 1004,5 31 24 0,0
16.12.2017 10:00:00 3,0 1,3 1,9 1,2 2,7 6,7 25 14 40 21 W 1003,9 59 0 0,3
16.12.2017 09:00:00 3,2 1,8 2,3 0,8 2,7 6,7 23 12 48 26 W 1003,5 10 0 0,0
16.12.2017 08:00:00 2,1 1,1 0,8 0,7 2,8 6,7 10 6 30 16 W 1002,4 54 0 0,8
16.12.2017 07:00:00 1,6 1,1 0,0 0,7 2,9 6,7 4 2 21 11 NNW 1002,2 27 0 0,6
16.12.2017 06:00:00 2,6 1,7 0,2 0,9 3,0 6,7 8 4 21 12 WNW 1001,7 45 0 0,0
16.12.2017 05:00:00 2,1 1,2 0,3 0,9 3,2 6,7 11 6 14 7 W 1001,2 49 0 0,0
16.12.2017 04:00:00 1,8 1,3 0,4 1,1 3,3 6,7 8 5 14 8 WSW 1001,1 35 0 0,3
16.12.2017 03:00:00 2,3 1,2 -0,5 1,5 3,4 6,7 6 4 24 13 N 1000,5 64 0 0,0
16.12.2017 02:00:00 3,4 2,1 2,1 1,3 3,6 6,7 17 9 30 16 W 1000,0 53 0 0,0
16.12.2017 01:00:00 2,5 1,3 0,4 1,4 3,8 6,7 13 7 26 14 WSW 999,7 36 0 1,2
16.12.2017 00:00:00 3,0 1,9 2,5 2,6 3,8 6,7 23 12 41 22 NW 999,8 3,5 0 1,1
15.12.2017 23:00:00 4,2 3,2 3,4 2,6 3,9 6,7 18 10 28 15 W 999,2 50 0 0,0
15.12.2017 22:00:00 3,9 3,1 3,2 3,3 3,9 6,7 10 5 17 9 WNW 999,0 19 0 0,0
15.12.2017 21:00:00 3,7 3,1 3,4 3,2 3,9 6,7 15 8 24 13 W 998,6 28 0 0,1
15.12.2017 20:00:00 3,7 2,9 3,1 3,2 3,9 6,7 11 6 34 18 W 998,2 21 0 0,0
15.12.2017 19:00:00 3,8 2,5 3,4 2,8 3,9 6,7 18 10 29 16 WSW 997,6 8 0 0,0
15.12.2017 18:00:00 3,3 1,8 2,4 2,5 4,1 6,7 24 13 31 17 SW 997,1 10 0 0,0
15.12.2017 17:00:00 3,5 2,1 3,1 3,1 4,1 6,7 19 11 29 16 WSW 996,9 11 0 0,0
15.12.2017 16:00:00 3,6 2,0 3,5 3,7 4,1 6,7 23 13 31 17 WSW 996,4 8 0 0,0
15.12.2017 15:00:00 3,8 2,2 3,9 4,0 4,0 6,7 23 12 33 18 WSW 995,9 11 0 0,0
15.12.2017 14:00:00 3,8 2,4 3,8 3,9 4,0 6,7 22 12 34 18 WSW 995,1 9 0 0,0
15.12.2017 13:00:00 3,8 2,3 4,0 3,9 3,9 6,7 24 13 32 17 WSW 994,4 9 0 0,0
15.12.2017 12:00:00 3,8 2,4 3,8 3,8 3,8 6,7 23 12 32 17 WSW 994,1 10 0 0,0
15.12.2017 11:00:00 3,8 2,4 3,8 3,7 3,8 6,8 27 15 35 19 WSW 993,6 12 0 0,0
15.12.2017 10:00:00 3,8 2,5 3,8 3,4 3,7 6,8 23 12 29 16 WSW 992,9 12 0 0,0
15.12.2017 09:00:00 3,7 2,6 3,5 3,2 3,7 6,8 19 10 30 16 SW 992,1 7 0 0,0
15.12.2017 08:00:00 3,4 2,3 3,3 3,1 3,7 6,8 23 12 32 17 SSW 991,4 7 0 0,0
15.12.2017 07:00:00 3,0 1,8 3,0 3,1 3,7 6,8 21 12 30 16 SSW 990,7 5 0 0,0
15.12.2017 06:00:00 3,5 2,2 3,4 3,1 3,7 6,8 19 11 32 17 SW 990,0 5 0 0,0
15.12.2017 05:00:00 3,4 2,1 3,2 3,0 3,7 6,8 25 13 34 18 SSW 989,4 - 0 0,0
15.12.2017 04:00:00 3,5 2,1 3,1 3,0 3,6 6,8 25 14 34 18 SW 988,9 - 0 0,0
15.12.2017 03:00:00 3,9 2,5 3,6 3,1 3,6 6,8 24 13 35 19 SW 988,5 - 0 0,0
15.12.2017 02:00:00 4,0 2,6 3,7 3,0 3,6 6,8 27 15 41 22 SW 987,9 - 0 0,0
15.12.2017 01:00:00 4,1 2,4 3,7 3,0 3,6 6,8 27 15 41 22 SW 987,6 - 0 0,0
15.12.2017 00:00:00 4,2 2,6 3,9 3,2 3,5 6,8 27 14 40 21 SW 987,5 - 0 0,0
14.12.2017 23:00:00 4,1 2,6 3,7 2,9 3,5 6,8 30 16 46 25 SW 987,2 - 0 0,0
14.12.2017 22:00:00 4,2 2,7 3,9 2,9 3,5 6,8 33 18 45 24 SW 987,3 - 0 0,0
14.12.2017 21:00:00 3,9 2,5 3,0 2,6 3,5 6,8 33 18 50 27 SW 987,2 - 0 0,0
14.12.2017 20:00:00 3,9 2,5 3,4 2,7 3,4 6,8 35 19 46 25 SW 987,0 - 0 0,0
14.12.2017 19:00:00 3,6 2,1 3,4 2,5 3,5 6,8 33 18 47 25 SSW 986,8 - 0 0,0
14.12.2017 18:00:00 3,6 2,2 2,7 2,1 3,6 6,8 36 20 55 30 SW 986,5 - 0 0,0
14.12.2017 17:00:00 3,7 2,4 2,8 1,6 3,7 6,8 26 14 51 27 WSW 986,3 - 0 2,0
14.12.2017 16:00:00 3,9 2,5 3,2 2,9 3,7 6,8 33 18 45 25 SW 986,2 - 0 0,2
14.12.2017 15:00:00 4,1 1,3 3,1 3,2 3,7 6,8 32 17 58 31 WSW 985,9 - 0 0,1
14.12.2017 14:00:00 3,5 2,3 3,2 3,4 3,7 6,8 37 20 56 31 SW 985,5 - 0 0,1
14.12.2017 13:00:00 3,8 1,6 3,2 3,3 3,6 6,8 34 18 63 34 WSW 985,3 20 0 1,5
14.12.2017 12:00:00 3,7 2,0 3,3 3,3 3,6 6,8 48 26 63 34 SW 985,2 15 0 0,3
14.12.2017 11:00:00 5,0 1,9 4,6 3,4 3,5 6,8 36 19 75 40 WSW 984,6 25 0 0,0
14.12.2017 10:00:00 4,7 2,9 4,4 2,9 3,5 6,8 34 19 53 29 SW 983,7 12 0 0,0
14.12.2017 09:00:00 4,2 1,4 3,2 2,7 3,5 6,8 26 14 56 30 W 982,9 30 0 0,0
14.12.2017 08:00:00 4,3 1,6 3,1 2,8 3,5 6,8 38 21 63 34 WSW 982,7 25 0 0,4
14.12.2017 07:00:00 4,9 2,4 3,9 2,6 3,6 6,8 37 20 57 31 W 981,5 30 0 0,0
14.12.2017 06:00:00 4,7 2,1 3,4 2,7 3,6 6,9 36 19 65 35 W 980,7 30 0 1,4
14.12.2017 05:00:00 4,5 2,6 3,7 3,4 3,6 6,9 34 18 54 29 WNW 980,1 - 0 0,2
14.12.2017 04:00:00 4,6 3,0 4,0 3,4 3,5 6,9 31 17 55 30 W 979,4 - 0 0,1
14.12.2017 03:00:00 4,3 2,7 3,7 3,3 3,5 6,9 44 24 71 38 W 978,8 - 0 0,8
14.12.2017 02:00:00 3,5 2,9 3,2 3,0 3,4 6,9 29 16 50 27 S 978,4 - 0 1,7
14.12.2017 01:00:00 2,8 2,4 2,7 3,0 3,4 6,9 27 14 46 25 SSE 979,9 3,2 0 2,2
14.12.2017 00:00:00 3,1 2,7 3,0 3,2 3,4 6,9 27 15 49 27 SSE 981,5 - 0 1,6
13.12.2017 23:00:00 4,1 3,3 3,9 3,4 3,3 6,9 26 14 50 27 S 982,9 - 0 0,0
13.12.2017 22:00:00 4,0 3,5 4,0 3,3 3,1 6,9 35 19 49 27 S 985,0 - 0 0,0
13.12.2017 21:00:00 3,7 3,3 3,7 3,1 3,0 6,9 30 16 47 25 S 986,5 - 0 0,0
13.12.2017 20:00:00 3,4 2,9 3,4 2,8 2,9 6,9 31 17 45 25 SSW 988,0 - 0 0,0
13.12.2017 19:00:00 3,0 2,4 3,0 2,5 2,9 6,9 29 15 50 27 SSW 989,2 - 0 0,0
13.12.2017 18:00:00 2,5 2,0 2,5 2,1 2,9 6,9 31 17 48 26 SSW 990,1 - 0 0,3
13.12.2017 17:00:00 1,4 0,8 1,2 1,7 2,9 6,9 34 18 56 31 S 991,3 - 0 0,6
13.12.2017 16:00:00 1,7 1,1 1,5 1,9 2,9 6,9 35 19 57 31 S 992,3 - 0 0,9
13.12.2017 15:00:00 2,0 1,3 1,9 2,2 2,9 7,0 39 21 64 35 S 993,4 - 0 0,7
13.12.2017 14:00:00 1,9 1,2 1,8 2,2 2,8 7,0 41 22 66 35 S 994,7 - 0 0,6
13.12.2017 13:00:00 2,3 1,4 2,1 2,4 2,7 7,0 44 24 66 35 S 996,2 3,5 0 0,3
13.12.2017 12:00:00 2,5 1,3 2,2 2,3 2,6 7,0 46 25 67 36 S 997,6 6 0 0,4
13.12.2017 11:00:00 2,2 1,0 1,9 2,1 2,6 7,0 41 22 65 35 S 999,2 4,5 0 0,4
13.12.2017 10:00:00 2,3 0,8 1,9 1,9 2,5 7,0 46 25 74 40 S 1000,7 6 0 0,1
13.12.2017 09:00:00 2,5 0,6 2,3 1,6 2,4 7,0 43 23 63 34 S 1001,8 7 0 0,0
13.12.2017 08:00:00 2,3 0,6 2,1 1,2 2,4 7,0 41 22 60 32 S 1002,8 6 0 0,0
13.12.2017 07:00:00 2,1 0,5 1,5 1,1 2,4 7,0 39 21 53 29 S 1003,7 5 0 0,0
13.12.2017 06:00:00 2,1 0,7 1,6 1,0 2,5 7,0 36 20 53 29 SSW 1004,9 5 0 0,0
13.12.2017 05:00:00 2,0 0,4 1,4 1,1 2,5 7,1 37 20 56 31 SSW 1005,8 6 0 0,0
13.12.2017 04:00:00 2,0 0,4 1,7 1,5 2,5 7,1 41 22 58 31 SSW 1006,5 7 0 0,0
13.12.2017 03:00:00 2,2 0,7 2,1 1,7 2,4 7,1 41 22 62 33 SW 1007,1 6 0 0,0
13.12.2017 02:00:00 2,2 0,8 2,0 1,6 2,3 7,1 46 25 62 34 SW 1007,5 5 0 0,0
13.12.2017 01:00:00 3,1 1,5 2,2 1,3 2,3 7,1 41 22 56 30 SW 1007,6 9 0 0,0
13.12.2017 00:00:00 3,6 2,0 2,7 1,2 2,3 7,1 39 21 54 29 SW 1007,4 10 0 0,0
12.12.2017 23:00:00 3,6 2,1 2,5 1,2 2,3 7,1 39 21 53 28 SW 1007,1 16 0 0,0
12.12.2017 22:00:00 3,9 2,1 2,8 1,2 2,2 7,1 37 20 50 27 SW 1007,3 20 0 0,0
12.12.2017 21:00:00 4,5 1,5 3,0 1,4 2,2 7,1 24 13 45 24 WSW 1007,1 33 0 0,0
12.12.2017 20:00:00 4,4 1,2 3,0 1,1 2,2 7,2 25 13 32 18 W 1006,9 38 0 0,0
12.12.2017 19:00:00 3,7 1,2 2,4 0,7 2,2 7,2 22 12 40 22 WSW 1006,2 34 0 0,0
12.12.2017 18:00:00 3,7 1,4 2,2 0,5 2,2 7,2 18 10 22 12 WSW 1005,7 27 0 0,0
12.12.2017 17:00:00 3,8 0,7 2,1 0,6 2,2 7,2 19 10 29 16 W 1004,9 42 0 0,0
12.12.2017 16:00:00 3,3 0,2 1,9 0,9 2,2 7,2 19 10 24 13 WNW 1003,8 45 0 0,0
12.12.2017 15:00:00 2,7 0,4 1,7 1,3 2,2 7,2 11 6 26 14 WNW 1002,4 31 0 0,0
12.12.2017 14:00:00 3,0 0,3 2,5 1,3 2,2 7,2 16 9 22 12 NW 1001,4 35 0 0,0
12.12.2017 13:00:00 2,5 0,0 1,4 1,0 2,1 7,2 16 9 37 20 N 1000,2 35 0 0,0
12.12.2017 12:00:00 2,5 -0,4 1,8 0,8 2,1 7,2 28 15 44 24 N 999,1 30 0 0,0
12.12.2017 11:00:00 2,5 0,1 1,6 0,6 2,1 7,2 30 16 46 25 N 997,7 25 0 0,0
12.12.2017 10:00:00 2,2 0,0 1,3 0,6 2,1 7,3 34 19 51 27 N 995,8 30 0 0,0
12.12.2017 09:00:00 1,9 0,3 1,2 0,6 2,2 7,3 34 19 47 26 N 994,1 25 0 0,0
12.12.2017 08:00:00 1,9 0,3 1,1 0,6 2,2 7,3 35 19 50 27 N 992,3 25 0 0,0
12.12.2017 07:00:00 1,6 0,1 0,8 0,6 2,2 7,3 33 18 53 28 NNW 990,7 25 0 0,0
12.12.2017 06:00:00 1,4 0,3 0,8 0,6 2,2 7,3 35 19 49 26 N 989,2 20 0 0,0
12.12.2017 05:00:00 1,1 0,2 0,4 0,6 2,2 7,3 32 17 41 22 N 988,3 12 0 0,0
12.12.2017 04:00:00 0,8 -0,1 0,4 0,6 2,2 7,3 26 14 44 24 N 987,0 11 0 0,0
12.12.2017 03:00:00 0,6 -0,1 0,3 0,6 2,2 7,3 33 18 47 26 N 986,3 8 0 0,1
12.12.2017 02:00:00 0,2 -0,3 0,1 0,6 2,2 7,4 32 18 46 25 N 985,5 2,5 0 0,0
12.12.2017 01:00:00 0,3 0,0 0,2 0,6 2,2 7,4 29 16 39 21 NNE 985,0 2,2 0 0,1
12.12.2017 00:00:00 0,4 0,1 0,1 0,6 2,2 7,4 26 14 40 21 NNE 985,1 3,5 0 0,1
11.12.2017 23:00:00 0,2 -0,1 0,0 0,6 2,2 7,4 26 14 38 20 NNE 984,8 1,3 0 0,7
11.12.2017 22:00:00 0,2 -0,1 0,0 0,6 2,2 7,4 26 14 41 22 NNE 985,1 1,4 0 0,8
11.12.2017 21:00:00 0,3 -0,1 0,1 0,6 2,2 7,4 29 15 45 24 NNE 984,6 1,3 0 0,2
11.12.2017 20:00:00 0,5 0,2 0,1 0,6 2,3 7,4 32 17 48 26 NE 984,9 6 0 0,2
11.12.2017 19:00:00 0,1 0,0 0,0 0,6 2,3 7,4 28 15 44 24 NNE 985,5 1,3 0 0,8
11.12.2017 18:00:00 0,0 -0,4 0,0 0,6 2,3 7,5 31 17 43 23 NNE 985,4 0,9 0 1,0
11.12.2017 17:00:00 0,1 -0,5 0,0 0,6 2,3 7,5 24 13 33 18 NE 984,9 0,7 0 0,7
11.12.2017 16:00:00 0,7 -0,9 0,3 0,6 2,3 7,5 19 10 33 18 NE 985,6 2,8 0 0,0
11.12.2017 15:00:00 0,7 -1,3 0,4 0,6 2,3 7,5 20 11 29 16 NE 985,6 18 0 0,0
11.12.2017 14:00:00 0,7 -1,3 0,4 0,5 2,3 7,5 14 8 24 13 ENE 986,8 17 0 0,0
11.12.2017 13:00:00 0,8 -1,4 0,4 0,5 2,3 7,5 16 9 28 15 NE 987,1 20 0 0,0
11.12.2017 12:00:00 0,5 -1,5 0,1 0,4 2,3 7,5 16 9 24 13 NE 987,1 20 0 0,0
11.12.2017 11:00:00 0,0 -1,7 -0,7 0,4 2,3 7,5 8 4 17 9 ENE 988,4 20 0 0,0
11.12.2017 10:00:00 -0,3 -2,1 -1,2 0,4 2,4 7,6 13 7 26 14 ENE 986,4 25 0 0,0
11.12.2017 09:00:00 0,0 -1,8 -1,2 0,4 2,4 7,6 18 10 28 15 NE 985,5 25 0 0,0
11.12.2017 08:00:00 0,2 -2,0 -1,2 0,4 2,4 7,6 17 9 32 17 NE 985,4 40 0 0,0

tt = Température de l'air
td = dewpoint
tt 5cm = Température de l'air 5cm
tt -5cm = Température de l'air -5cm
tt -20cm = Température de l'air -20cm
tt -100cm = Température de l'air -100cm
ff = Vitesse du vent
fx = gusts
dd = Direction du vent
ppp = reduced air pressure
vv = visibility
sd = Ensoleillement
rr = Quantités de précipitations

stations d'obs. à proximité